Location: Lhota
(50.0887°N, 14.0116°E)
Time: 23:49:32
(UTC+00:00)

Cosmos 1697 Rocket - Pass Details

Date: 19 May 2025
Orbit: 830 x 844 km, 71.0° (Epoch: 22 June)

Event Time Altitude Azimuth Distance (km) Brightness Sun altitude
Rises 19:33:46 0° 332° (NNW) 3,406 7.5 -6.4°
Reaches altitude 10° 19:36:16 10° 336° (NNW) 2,470 6.4 -6.7°
Maximum altitude 19:41:51 58° 56° (NE) 985 3.0 -7.4°
Drops below altitude 10° 19:47:25 10° 135° (SE) 2,460 4.4 -8.0°
Enters shadow 19:47:28 10° 135° (SE) 2,478 4.4 -8.0°
